Location: Ammerl�gen
(47.2167°N, 9.6000°E)
Time: 03:08:25
(UTC+00:00)

ARIANE 5 R/B - Pass Details

Date: 21 April 2021
Orbit: 620 x 656 km, 98.1° (Epoch: 11 May)

Event Time Altitude Azimuth Distance (km) Brightness Sun altitude
Exits shadow 21:18:33 33° 238° (WSW) 1,079 3.7 -24.7°
Maximum altitude 21:19:22 36° 263° (W) 1,017 3.8 -24.8°
Drops below altitude 10° 21:23:25 10° 330° (NNW) 2,018 6.2 -25.1°
Sets 21:25:46 0° 339° (NNW) 2,926 7.3 -25.4°
